Weather in Siquijor

Philippines     9°12′47″N   123°30′55″E
temp.,
°C
wind,
m/s
gust,
m/s
humid.,
%
clouds,
%
prec.,
mm/h
press.,
hPa
HPBL,
m
11 april, sun
sun1123:00+27nne33776 1.6 1013280
02:00+27nne237688 2.7 1011285
05:00+27ne2275100 0.6 1012327
08:00+28ne457498 0.6 1013678
11:00+28ne567380 0.0 1012649
14:00+28n4472100 0.0 1010490
17:00+28n4574100 0.0 1010326
20:00+28nne3377100 0.4 1012259
12 april, mon
mon1223:00+27ene3476100 0.4 1013424
02:00+27nne237551 0.5 1011433
05:00+27nne337855 0.0 1011405
08:00+28nne55759 0.0 1013759
11:00+28ne447116 0.1 1012655
14:00+28n336864 0.3 1009544
17:00+28n44712 0.0 1009380
20:00+27n237714 0.2 1011202
13 april, tue
tue1323:00+28nne3376100 0.1 1011453
02:00+27n2374100 0.1 1009353
05:00+27nnw1275100 0.0 1009337
08:00+27nne1173100 0.1 1011375
11:00+28nne2270100 0.0 1011529
14:00+28n2370100 0.0 1008445
17:00+28nne1169100 0.5 1008281
20:00+28wnw1274100 0.7 1010217
14 april, wed
wed1423:00+28nnw337692 0.0 1010373
02:00+27n3375100 0.0 1008454
05:00+27nne237597 0.0 1009441
08:00+28nne227199 0.0 1010543
11:00+29ne226897 0.1 1010586
14:00+29ne116599 0.1 1008489
17:00+29wsw226978 0.0 1008410
20:00+28w227570 0.2 1009126
15 april, thu
thu1523:00+28nnw227353 0.9 1010228
02:00+27n2274100 0.9 1008430
05:00+27nne237685 0.7 1008389
08:00+28ne337384 0.7 1010611
11:00+28nne337035 0.2 1010592
14:00+29n33676 0.3 1007425
17:00+29n336621 0.1 1007356
20:00+28w127190 0.3 1010154